Weather History for Orr, MN

Change the Weather History Date:

Thursday, February 7, 2013

  Actual Average Record
Temperature  
Mean Temperature 10 °F -  
Max Temperature 21 °F 21 °F 46 °F (1998)
Min Temperature 0 °F 2 °F -18 °F (2007)
Degree Days  
Heating Degree Days 54    
Moisture  
Dew Point 6 °F    
Average Humidity 81    
Maximum Humidity 92    
Minimum Humidity 63    
Precipitation  
Precipitation 0.00 in - - ()
Sea Level Pressure  
Sea Level Pressure 30.18 in    
Wind  
Wind Speed 0 mph (WNW)    
Max Wind Speed 5 mph    
Max Gust Speed -    
Visibility 8 miles    
Events Snow    
Averages and records for this station are not official NWS values.
T = Trace of Precipitation, MM = Missing Value Source: NWS Daily Summary

Daily Weather History Graph

Daily Weather History Graph

Search for Another Location

Airport:

Trip Planner

Search our weather history database for the weather conditions in past years. The results will help you decide how hot, cold, wet, or windy it might be!

Date:

Astronomy

Feb. 07, 2013 Rise Set
Actual Time 7:30 AM CST 5:21 PM CST
Civil Twilight 6:57 AM CST 5:54 PM CST
Nautical Twilight 6:20 AM CST 6:31 PM CST
Astronomical Twilight 5:44 AM CST 7:07 PM CST
Moon 5:17 AM CST (2/7) 2:40 PM CST (2/7)
Length of Visible Light 10h 56m
Length of Day
9h 51m
Waning Crescent, 9% of the Moon is Illuminated
Feb 7
Waning Crescent
Feb 10
New
Feb 17
First Quarter
Feb 25
Full
Mar 4
Last Quarter

Hourly Weather History & Observations

Time (CST) Temp. Windchill Dew Point Humidity Pressure Visibility Wind Dir Wind Speed Gust Speed Precip Events Conditions
12:13 AM 8.6 °F - 5.0 °F 85% 30.09 in 10.0 mi Calm Calm - N/A   Scattered Clouds
12:33 AM 8.6 °F - 6.8 °F 92% 30.09 in 10.0 mi Calm Calm - N/A   Scattered Clouds
12:53 AM 6.8 °F - 3.2 °F 85% 30.09 in 10.0 mi Calm Calm - N/A   Clear
1:13 AM 6.8 °F - 3.2 °F 85% 30.09 in 10.0 mi Calm Calm - N/A   Clear
1:33 AM 6.8 °F - 3.2 °F 85% 30.10 in 10.0 mi Calm Calm - N/A   Clear
1:53 AM 6.8 °F - 1.4 °F 79% 30.10 in 10.0 mi Calm Calm - N/A   Clear
2:13 AM 3.2 °F - -0.4 °F 85% 30.11 in 7.0 mi Calm Calm - N/A   Clear
2:33 AM 1.4 °F - -0.4 °F 92% 30.12 in 10.0 mi Calm Calm - N/A   Clear
2:53 AM 1.4 °F - -2.2 °F 85% 30.12 in 10.0 mi Calm Calm - N/A   Clear
3:13 AM 3.2 °F - -0.4 °F 85% 30.12 in 10.0 mi Calm Calm - N/A   Scattered Clouds
3:33 AM -0.4 °F - -5.8 °F 78% 30.12 in 10.0 mi Calm Calm - N/A   Scattered Clouds
3:53 AM 1.4 °F - -2.2 °F 85% 30.13 in 10.0 mi Calm Calm - N/A   Mostly Cloudy
4:13 AM 1.4 °F - -2.2 °F 85% 30.12 in 5.0 mi Calm Calm - N/A Snow Light Snow
4:33 AM 3.2 °F - -0.4 °F 85% 30.12 in 10.0 mi Calm Calm - N/A   Overcast
4:53 AM 5.0 °F - 1.4 °F 85% 30.13 in 4.0 mi Calm Calm - N/A Snow Light Snow
5:13 AM 6.8 °F - 1.4 °F 79% 30.14 in 4.0 mi Calm Calm - N/A Snow Light Snow
5:33 AM 5.0 °F - 1.4 °F 85% 30.14 in 5.0 mi Calm Calm - N/A   Overcast
5:53 AM 6.8 °F - 1.4 °F 79% 30.14 in 4.0 mi Calm Calm - N/A Snow Light Snow
6:13 AM 6.8 °F - 1.4 °F 79% 30.14 in 5.0 mi Calm Calm - N/A   Overcast
6:34 AM 6.8 °F - 1.4 °F 79% 30.15 in 5.0 mi Calm Calm - N/A Snow Light Snow
6:53 AM 6.8 °F - 1.4 °F 79% 30.16 in 7.0 mi Calm Calm - N/A   Overcast
7:13 AM 6.8 °F - 1.4 °F 79% 30.16 in 7.0 mi Calm Calm - N/A   Overcast
7:33 AM 6.8 °F - 1.4 °F 79% 30.16 in 5.0 mi Calm Calm - N/A Snow Light Snow
7:53 AM 6.8 °F - 1.4 °F 79% 30.17 in 5.0 mi Calm Calm - N/A Snow Light Snow
8:13 AM 6.8 °F - 1.4 °F 79% 30.17 in 4.0 mi Calm Calm - N/A Snow Light Snow
8:33 AM 6.8 °F - 1.4 °F 79% 30.19 in 5.0 mi Calm Calm - N/A Snow Light Snow
8:53 AM 6.8 °F - 3.2 °F 85% 30.19 in 5.0 mi Calm Calm - N/A Snow Light Snow
9:13 AM 6.8 °F - 3.2 °F 85% 30.19 in 10.0 mi Calm Calm - N/A Snow Light Snow
9:33 AM 6.8 °F - 3.2 °F 85% 30.19 in 10.0 mi Calm Calm - N/A Snow Light Snow
9:53 AM 8.6 °F - 5.0 °F 85% 30.19 in 7.0 mi Calm Calm - N/A Snow Light Snow
10:13 AM 8.6 °F - 6.8 °F 92% 30.20 in 5.0 mi Calm Calm - N/A Snow Light Snow
10:33 AM 10.4 °F - 6.8 °F 85% 30.20 in 3.0 mi Calm Calm - N/A Snow Light Snow
10:53 AM 10.4 °F - 6.8 °F 85% 30.20 in 7.0 mi Calm Calm - N/A Snow Light Snow
11:13 AM 10.4 °F - 6.8 °F 85% 30.22 in 7.0 mi Calm Calm - N/A Snow Light Snow
11:33 AM 12.2 °F - 8.6 °F 85% 30.22 in 7.0 mi Calm Calm - N/A Snow Light Snow
11:53 AM 12.2 °F - 8.6 °F 85% 30.22 in 5.0 mi Calm Calm - N/A Snow Light Snow
12:13 PM 14.0 °F - 8.6 °F 79% 30.22 in 5.0 mi Calm Calm - N/A Snow Light Snow
12:33 PM 15.8 °F - 8.6 °F 73% 30.21 in 10.0 mi Calm Calm - N/A Snow Light Snow
12:53 PM 17.6 °F 12.3 °F 10.4 °F 73% 30.21 in 10.0 mi North 3.5 mph - N/A Snow Light Snow
1:13 PM 17.6 °F - 10.4 °F 73% 30.20 in 10.0 mi Calm Calm - N/A   Mostly Cloudy
1:33 PM 17.6 °F 10.7 °F 10.4 °F 73% 30.20 in 10.0 mi WNW 4.6 mph - N/A   Overcast
1:53 PM 19.4 °F 14.3 °F 10.4 °F 68% 30.19 in 10.0 mi WNW 3.5 mph - N/A   Mostly Cloudy
2:13 PM 19.4 °F 14.3 °F 12.2 °F 74% 30.18 in 10.0 mi West 3.5 mph - N/A   Scattered Clouds
2:34 PM 19.4 °F 14.3 °F 10.4 °F 68% 30.18 in 10.0 mi WNW 3.5 mph - N/A   Clear
2:53 PM 19.4 °F 14.3 °F 10.4 °F 68% 30.18 in 10.0 mi West 3.5 mph - N/A   Clear
3:13 PM 19.4 °F 12.8 °F 10.4 °F 68% 30.18 in 10.0 mi WNW 4.6 mph - N/A   Clear
3:33 PM 21.2 °F 16.4 °F 12.2 °F 68% 30.18 in 10.0 mi WNW 3.5 mph - N/A   Scattered Clouds
3:53 PM 21.2 °F - 12.2 °F 68% 30.19 in 10.0 mi Calm Calm - N/A   Scattered Clouds
4:13 PM 21.2 °F - 10.4 °F 63% 30.19 in 10.0 mi Calm Calm - N/A   Clear
4:33 PM 21.2 °F - 10.4 °F 63% 30.19 in 10.0 mi Calm Calm - N/A   Clear
4:53 PM 19.4 °F - 10.4 °F 68% 30.20 in 10.0 mi Calm Calm - N/A   Clear
5:33 PM 17.6 °F - 10.4 °F 73% 30.21 in 10.0 mi Calm Calm - N/A   Overcast
5:53 PM 15.8 °F - 10.4 °F 79% 30.22 in 10.0 mi Calm Calm - N/A   Overcast
6:13 PM 14.0 °F - 8.6 °F 79% 30.22 in 10.0 mi Calm Calm - N/A   Mostly Cloudy
6:33 PM 12.2 °F - 8.6 °F 85% 30.22 in 10.0 mi Calm Calm - N/A   Scattered Clouds
6:53 PM 10.4 °F - 8.6 °F 92% 30.22 in 10.0 mi Calm Calm - N/A   Mostly Cloudy
7:13 PM 12.2 °F - 8.6 °F 85% 30.23 in 10.0 mi Calm Calm - N/A   Overcast
7:33 PM 12.2 °F - 8.6 °F 85% 30.22 in 10.0 mi Calm Calm - N/A   Overcast
7:53 PM 12.2 °F - 8.6 °F 85% 30.22 in 10.0 mi Calm Calm - N/A Snow Light Snow
8:13 PM 10.4 °F - 6.8 °F 85% 30.23 in 10.0 mi Calm Calm - N/A Snow Light Snow
8:33 PM 10.4 °F - 6.8 °F 85% 30.23 in 10.0 mi Calm Calm - N/A Snow Light Snow
8:53 PM 10.4 °F - 6.8 °F 85% 30.24 in 10.0 mi Calm Calm - N/A   Overcast
9:13 PM 10.4 °F - 6.8 °F 85% 30.24 in 10.0 mi Calm Calm - N/A Snow Light Snow
9:33 PM 10.4 °F - 6.8 °F 85% 30.24 in 7.0 mi Calm Calm - N/A Snow Light Snow
9:53 PM 10.4 °F - 6.8 °F 85% 30.24 in 10.0 mi Calm Calm - N/A Snow Light Snow
10:13 PM 10.4 °F - 8.6 °F 92% 30.25 in 10.0 mi Calm Calm - N/A   Overcast
10:33 PM 10.4 °F - 6.8 °F 85% 30.25 in 10.0 mi Calm Calm - N/A   Overcast
10:53 PM 10.4 °F - 6.8 °F 85% 30.25 in 10.0 mi Calm Calm - N/A   Overcast
11:13 PM 8.6 °F - 6.8 °F 92% 30.24 in 10.0 mi Calm Calm - N/A Snow Light Snow
11:33 PM 6.8 °F - 5.0 °F 92% 30.25 in 10.0 mi Calm Calm - N/A   Scattered Clouds